Home   Weather   Sunnyvale   Past weeks

Flag for USA Past Weather in Sunnyvale, California, USA — Yesterday and Last 2 Weeks

Now
72 °F

Sunny.


Feels Like: 75 °F
Forecast: 61 / 75 °F
Wind: 13 mph from North

Location: Moffett Field

Current Time: Aug 19, 2017 at 5:38:31 pm

Latest Report: Aug 19, 2017 at 4:56 pm


Visibility: 10 mi

Pressure: 29.87 "Hg

Humidity: 68%

Dew Point: 61 °F

Location of SunnyvaleLocation

Past Weather in Sunnyvale — Graph

°F

Sunnyvale Temperature Yesterday

Maximum temperature yesterday: 75 °F (at 12:56 pm)
Minimum temperature yesterday: 62 °F (at 2:56 am)
Average temperature yesterday: 67 °F

High & Low Weather Summary for the Past Weeks

 TemperatureHumidityPressure
High79 °F (Aug 4, 4:56 pm)94% (Aug 5, 1:56 am)30.04 "Hg (Aug 5, 1:56 am)
Low58 °F (Aug 13, 5:56 am)46% (Aug 15, 2:56 pm)29.86 "Hg (Aug 15, 4:42 am)
Average66 °F77%29.95 "Hg
* Reported Aug 4 3:56 pm — Aug 19 3:56 pm, Sunnyvale. Weather by CustomWeather, © 2017

Note: Actual official high and low records may vary slightly from our data, if they occured in-between our weather recording intervals... More about our weather records

Advertising

Sunnyvale Weather History for the Previous 24 Hours

Scroll right to see more
 ConditionsComfort  
Time TempWeatherWind HumidityBarometerVisibility
3:56 pm
Sat, Aug 19
74 °FSunny.13 mph64%29.87 "Hg10 mi
2:56 pm75 °FSunny.13 mph62%29.88 "Hg10 mi
1:56 pm74 °FSunny.10 mph62%29.90 "Hg10 mi
12:56 pm73 °FSunny.10 mph66%29.92 "Hg10 mi
11:56 am71 °FSunny.9 mph68%29.93 "Hg10 mi
10:56 am70 °FPassing clouds.7 mph71%29.94 "Hg9 mi
9:56 am68 °FSunny.No wind73%29.94 "Hg8 mi
8:56 am66 °FPassing clouds.3 mph78%29.93 "Hg9 mi
7:56 am64 °FOvercast.6 mph78%29.93 "Hg10 mi
6:56 am64 °FOvercast.3 mph84%29.92 "Hg8 mi
5:56 am63 °FOvercast.3 mph87%29.92 "Hg10 mi
4:56 am64 °FOvercast.3 mph84%29.91 "Hg10 mi
3:56 am64 °FOvercast.3 mph87%29.92 "Hg9 mi
2:56 am63 °FOvercast.No wind90%29.93 "Hg10 mi
1:56 am63 °FOvercast.6 mph90%29.94 "Hg10 mi
12:56 am63 °FOvercast.6 mph90%29.95 "Hg10 mi
12:05 am63 °FPassing clouds.7 mph90%29.94 "Hg10 mi
10:56 pm
Fri, Aug 18
64 °FClear.7 mph87%29.96 "Hg10 mi
9:56 pm64 °FClear.8 mph87%29.96 "Hg10 mi
8:56 pm65 °FClear.6 mph87%29.96 "Hg10 mi
7:56 pm67 °FClear.6 mph81%29.95 "Hg10 mi
6:56 pm69 °FSunny.8 mph76%29.94 "Hg10 mi
5:56 pm71 °FSunny.12 mph71%29.94 "Hg10 mi
Weather by CustomWeather, © 2017

See weather overviewHow to use our weather pages